Regional Weather Roundup
Issued by NWS Jackson, KY

Home | Current Version | Previous Version | Graphics & Text | Print | Product List | Glossary On
Versions: 1 2 3 4 5 6 7 8 9 10 11 12 13 14 15 16 17 18 19 20 21 22 23 24 25 26 27 28 29 30 31 32 33 34 35 36 37 38 39 40 41 42 43 44 45 46 47 48 49 50
000
ASUS43 KJKL 171005
RWRJKL

EAST KENTUCKY HOURLY WEATHER ROUNDUP
NATIONAL WEATHER SERVICE JACKSON KY
600 AM EDT WED SEP 17 2014

NOTE: "FAIR" INDICATES FEW OR NO CLOUDS BELOW 12,000 FEET WITH
NO SIGNIFICANT WEATHER AND/OR OBSTRUCTIONS TO VISIBILITY.

* THESE REPORTS ARE NOT UNDER NWS QUALITY CONTROL AND MAY NOT
  REPORT WEATHER SUCH AS PRECIPITATION AND FOG.

KYZ079-080-083-085-087-088-110-112-115-119-120-171100
...EASTERN KENTUCKY...

CITY           SKY/WX    TMP DP  RH WIND       PRES   REMARKS
JACKSON        CLOUDY    55  53  93 VRB3      30.06S
LONDON         CLOUDY    58  54  86 N5        30.06S
MONTICELLO*    CLOUDY    58  55  89 E6        30.07S
WILLIAMSBURG*  CLOUDY    55  55 100 CALM      30.05F
MIDDLESBORO*   CLOUDY    55  55  97 CALM      30.05S
HARLAN APT*    CLOUDY    55  55 100 MISG      30.05R
BLACK MTN*       N/A     50  48  93 SW2         N/A
BIG SANDY*     CLOUDY    54  54  99 N3        30.06S
MOREHEAD APT*  CLOUDY    50  48  93 CALM      30.09S FOG
$$

KYZ035-036-041-042-044-050-067-078-099-171100
...CENTRAL KENTUCKY...

CITY           SKY/WX    TMP DP  RH WIND       PRES   REMARKS
MT STERLING*   CLOUDY    48  48 100 CALM      30.08S
FLEMING/MASON* FOG       45  45 100 CALM      30.09S VSB 1
DANVILLE*      CLEAR     46  46 100 CALM      30.08S FOG
RICHMOND*      CLOUDY    54  50  87 CALM      30.06F
LEXINGTON      CLOUDY    55  50  83 E6        30.07F
FRANKFORT      FOG       46  46 100 NW3       30.06F VSB 1/4
$$

KYZ091>093-OHZ055-061-077-WVZ005-015-034-035-042-171100
...SOUTHERN OHIO/WEST VIRGINIA...

CITY           SKY/WX    TMP DP  RH WIND       PRES   REMARKS
COVINGTON      MOCLDY    49  47  93 CALM      30.07F FOG
COLUMBUS       CLOUDY    52  47  83 CALM      30.07F
DAYTON         CLEAR     47  46  97 CALM      30.09S
WILMINGTON     CLOUDY    48  47  96 CALM      30.07F FOG
HUNTINGTON     CLEAR     50  49  96 NW3       30.07R FOG
CHARLESTON     FOG       55  55 100 CALM      30.06S VSB 1/4
PINEVILLE*     MOCLDY    54  54 100 MISG      30.10S FOG
BECKLEY        CLOUDY    53  51  93 E3        30.06F
BLUEFIELD      FOG       55  52  89 NE3       30.07S VSB 1/4
$$

VAZ002-007-008-TNZ017-027-036-066-071-171100
...SOUTHWEST VIRGINIA/EAST TENNESSEE...

CITY           SKY/WX    TMP DP  RH WIND       PRES   REMARKS
WISE*          CLOUDY    55  55 100 N5        30.07S FOG
JONESVILLE*    FOG       54  54 100 CALM      30.06S VSB 1/4
ABINGDON*      MOCLDY    60  57  91 CALM      30.03S
BRISTOL        MOCLDY    60  56  86 CALM      30.01F
KNOXVILLE      CLOUDY    61  58  90 N6        30.00F
OAK RIDGE      MOCLDY    58  55  90 CALM      30.04S
CROSSVILLE     FOG       56  53  90 N6        30.05F VSB 3/4
NASHVILLE      PTCLDY    56  54  93 N8        30.03S
$$

...KEY TO REMARKS...
VSB - VISIBILITY IN MILES
WCI - WIND CHILL INDEX
HX  - HEAT INDEX

$$


USA.gov is the U.S. government's official web portal to all federal, state and local government web resources and services.